Regional Weather Roundup
Issued by NWS

Home | Current Version | Previous Version | Text Only | Print | Product List | Glossary On
Versions: 1 2 3 4 5 6 7 8 9 10 11 12 13 14 15 16 17 18 19 20 21 22 23 24 25 26 27 28 29 30 31 32 33 34 35 36 37 38 39 40 41 42 43 44 45 46 47 48 49 50
000
ASUS43 KMKX 262100
RWRWI

WISCONSIN REGIONAL WEATHER ROUNDUP
NATIONAL WEATHER SERVICE MILWAUKEE/SULLIVAN WI
400 PM CDT WED APR 26 2017

NOTE: "FAIR" INDICATES FEW OR NO CLOUDS BELOW 12,000 FEET WITH NO
SIGNIFICANT WEATHER AND/OR OBSTRUCTIONS TO VISIBILITY.

WIZ001-002-006>008-014>016-023>028-262200-
NORTHWEST WISCONSIN

CITY           SKY/WX    TMP DP  RH WIND       PRES   REMARKS
SUPERIOR ARPT  CLOUDY    35  33  92 NE9       29.58F WCI  27
ASHLAND        LGT SNOW  33  32  96 NE18G25   29.54S FOG     WCI  22
HAYWARD        CLOUDY    35  32  88 N8        29.51R FOG     WCI  29
SIREN          LGT RAIN  37  34  90 NE9       29.54S WCI  30
CUMBERLAND     CLOUDY    36  32  87 N12G18    29.50S WCI  27
RICE LAKE      CLOUDY    38  35  89 N12       29.51R WCI  30
CHETEK         CLOUDY    38  36  93 NW7       29.50R WCI  32
LADYSMITH      CLOUDY    38  36  92 N9        29.47S WCI  32
EAU CLAIRE     NOT AVBL
MENOMONIE      CLOUDY    40  37  87 W12       29.50R WCI  33
NEW RICHMOND   CLOUDY    38  36  90 N12       29.53R WCI  31
OSCEOLA        CLOUDY    39  35  87 NW9       29.57R WCI  32
$$

WIZ003>005-009-010-017-018-262200-
NORTH CENTRAL WISCONSIN

CITY           SKY/WX    TMP DP  RH WIND       PRES   REMARKS
MANITOWISH WTR DRIZZLE   34  34 100 N8        29.44S WCI  27
ARBOR VITAE    CLOUDY    39  38  94 N10       29.41S FOG     WCI  32
WOODRUFF       CLOUDY    39  38  94 N10       29.41S FOG     WCI  32
RHINELANDER    CLOUDY    43  43 100 NW8       29.39F
EAGLE RIVER    DRIZZLE   39  39  99 N8        29.41R WCI  34
LAND O LAKES   DRIZZLE   37  37 100 N6        29.43S WCI  32
PHILLIPS       CLOUDY    36  36 100 N6        29.43S FOG     WCI  31
TOMAHAWK       CLOUDY    41  39  94 NW9       29.41F FOG
MEDFORD        CLOUDY    43  42  95 NW9       29.40S
MERRILL        CLOUDY    48  48 100 NW7       29.39S
$$

WIZ029-030-035-036-043>047-262200-
CENTRAL WISCONSIN

CITY           SKY/WX    TMP DP  RH WIND       PRES   REMARKS
WAUSAU         CLOUDY    55  53  93 W10       29.37R
MOSINEE        CLOUDY    54  52  94 SW10      29.40R
MARSHFIELD     CLOUDY    45  42  89 W12       29.42R
STEVENS POINT  CLOUDY    58  55  91 W9        29.39S
WAUPACA        CLOUDY    67  59  77 SW8       29.38F
WAUTOMA        NOT AVBL
WISC RAPIDS    CLOUDY    52  50  93 NW9       29.43R
CAMP DOUGLAS   NOT AVBL
$$

WIZ011>013-019>022-031-037>040-048>050-262200-
NORTHEAST WISCONSIN

CITY           SKY/WX    TMP DP  RH WIND       PRES   REMARKS
ANTIGO         CLOUDY    56  56 100 S7        29.37F FOG
SHAWANO        CLOUDY    64  59  83 S7        29.37F
OCONTO         CLOUDY    61  56  83 SW9       29.38F
STURGEON BAY   PTSUNNY   64  59  83 SW15G21   29.39F
GREEN BAY      CLOUDY    65  62  90 S14       29.39F
MANITOWOC      CLOUDY    66  57  72 SW17      29.42R
APPLETON       CLOUDY    64  55  72 SW16      29.38F
CLINTONVILLE   CLOUDY    63  59  88 SW10      29.37F
OSHKOSH        CLOUDY    66  58  75 SW16G22   29.38F
$$

WIZ032>034-041-042-053>061-262200-
SOUTHWEST WISCONSIN

CITY           SKY/WX    TMP DP  RH WIND       PRES   REMARKS
LA CROSSE      CLOUDY    48  42  80 W13       29.47F
SPARTA         CLOUDY    45  45 100 W8        29.47S FOG
VIROQUA        CLOUDY    46  46 100 W12       29.46S
BOSCOBEL       CLOUDY    52  49  89 W8        29.48R
PRAIRIE DU CHI CLOUDY    49  44  83 W10G17    29.49R
PLATTEVILLE    CLOUDY    52  52 100 SW15      29.48R
$$

WIZ056-057-062-063-064-067-068-262200-
SOUTH CENTRAL WISCONSIN

CITY           SKY/WX    TMP DP  RH WIND       PRES   REMARKS
REEDSBURG      CLOUDY    61  56  84 SW14      29.42R
BARABOO/DELLS  CLOUDY    61  54  78 SW13      29.41R
LONE ROCK      NOT AVBL
MINERAL POINT  CLOUDY    54  54 100 SW12G20   29.46R
MADISON        CLOUDY    62  54  74 SW8       29.44R
MIDDLETON      CLOUDY    63  55  76 SW12      29.45R
WATERTOWN      CLOUDY    68  58  68 SW16G23   29.42S
MONROE         CLOUDY    59  54  82 SW17      29.48R
JANESVILLE     CLOUDY    64  55  72 SW18G26   29.48R
$$

WIZ051-052-058>065-066-070>072-262200-
SOUTHEAST WISCONSIN

CITY           SKY/WX    TMP DP  RH WIND       PRES   REMARKS
MILWAUKEE      PTSUNNY   72  59  63 SW16      29.45F
WAUKESHA       PTSUNNY   66  55  68 SW14G23   29.46R
MILWAUKEE/TIMM PTSUNNY   70  54  56 S16G24    29.45S
RACINE         CLOUDY    71  56  58 SW15      29.47S
KENOSHA        CLOUDY    70  57  63 SW15G22   29.46R
FOND DU LAC    CLOUDY    66  57  72 SW16G22   29.41S
SHEBOYGAN      MOSUNNY   69  62  78 S17       29.42S HAZE
WEST BEND      CLOUDY    64  59  82 SW13      29.43S
JUNEAU         CLOUDY    65  58  79 SW17      29.44R
$$

LSZ147-162-262200-
LAKE SUPERIOR

STATION/POSITION TIME  TEMP    WIND        PRES    WAVE
                       AIR SEA DIR/SP/G            HT/PER
                 (UTC) (F)     (DEG/KT/KT) (MB)    (FT/S)
DEVILS ISLAND    2000   33      30/ 26/ 31 1001.9R
PORT WING        2040   34      30/ 24/ 27 1001.7F
SAXON HARBOR     2040   35      40/ 23/ 27  999.7F
$$

LMZ867-665-643>646-262200-
LAKE MICHIGAN

STATION/POSITION TIME  TEMP    WIND        PRES    WAVE
                       AIR SEA DIR/SP/G            HT/PER
                 (UTC) (F)     (DEG/KT/KT) (MB)    (FT/S)
CHAMBERS ISLAND  2040   57     170/  5/ 11  994.9S
N MID LAKE BUOY  1950   47 38  200/ 10/ 12  997.0F   2/ 4
NORTHPORT PIER   2040   59     210/  3/ 12  995.3F
KEWAUNEE LAKESHO 2030   50     160/ 11/ 12  995.8R
SHEBOYGAN LAKESH 2000   65     220/ 15/ 18  996.0S
PORT WASHINGTON  2040   63     190/  7/ 10  997.6F
MILWAUKEE LAKESH 2030   69     210/ 12/ 13   N/A
S MID LAKE BUOY  1950   49 42  200/  8/  8  998.6R   1/ 4
KENOSHA   LAKESH 2000   72     210/ 14/ 22  997.6
$$

TC  - TEMPERATURE IN CELSIUS
VSB - VISIBILITY IN STATUTE MILES
WCI - WIND CHILL INDEX
HX  - HEAT INDEX




USA.gov is the U.S. government's official web portal to all federal, state and local government web resources and services.